SCP
0 0 0 0 0 0 0 0 0 0 0 0 0 0 0 0 0 0 0 0 0 0 0 0 0 0 0 0 0 0 0 0 0 0 0 0 0 0 0 0 0 0 0
0 0 0 0 0 0 0 0 0 0 0 0 0 0 0 0 0 0 0 0 0 0 0 0 0 0 0 0 0 0 0 0 0 0 0 0 0 0 0 0 0 0 0
0 0 0 0 0 0 0 0 0 0 0 0 0 0 0 0 0 0 0 0 0 0 0 0 0 0 0 0 0 0 0 0 0 0 0 0 0 0 0 0 0 0 0
0 0 0 0 0 0 0 0 0 0 0 0 0 0 0 0 0 0 0 0 0 0 0 0 0 0 0 0 0 0 0 0 0 0 0 0 0 0 0 0 0 0 0
0 0 0 0 0 0 0 0 0 0 0 0 0 0 0 0 0 0 0 0 0 0 0 0 0 0 0 0 0 0 0 0 0 0 0 0 0 0 0 0 0 0 0
0 0 0 0 0 0 0 0 0 0 0 0 0 0 0 0 0 0 0 0 0 0 0 0 0 0 0 0 0 0 0 0 0 0 0 0 0 0 0 0 0 0 0
0 0 0 0 0 0 0 0 0 0 0 0 0 0 0 0 0 0 0 0 0 0 0 0 0 0 0 0 0 0 0 0 0 0 0 0 0 0 0 0 0 0 0
0 0 0 0 0 0 0 0 0 0 0 0 0 0 0 0 0 0 0 0 0 0 0 0 0 0 0 0 0 0 0 0 0 0 0 0 0 0 0 0 0 0 0
0 0 0 0 0 0 0 0 0 0 0 0 0 0 0 0 0 0 0 0 0 0 0 0 0 0 0 0 0 0 0 0 0 0 0 0 0 0 0 0 0 0 0
0 0 0 0 0 0 0 0 0 0 0 0 0 0 0 0 0 0 0 0 0 0 0 0 0 0 0 0 0 0 0 0 0 0 0 0 0 0 0 0 0 0 0
0 0 0 0 0 0 0 0 0 0 0 0 0 0 0 0 0 0 0 0 0 0 0 0 0 0 0 0 0 0 0 0 0 0 0 0 0 0 0 0 0 0 0
0 0 0 0 0 0 0 0 0 0 0 0 0 0 0 0 0 0 0 0 0 0 0 0 0 0 0 0 0 0 0 0 0 0 0 0 0 0 0 0 0 0 0
0 0 0 0 0 0 0 0 0 0 0 0 0 0 0 0 0 0 0 0 0 0 0 0 0 0 0 0 0 0 0 0 0 0 0 0 0 0 0 0 0 0 0
0 0 0 0 0 0 0 0 0 0 0 0 0 0 0 0 0 0 0 0 0 0 0 0 0 0 0 0 0 0 0 0 0 0 0 0 0 0 0 0 0 0 0
0 0 0 0 0 0 0 0 0 0 0 0 0 0 0 0 0 0 0 0 0 0 0 0 0 0 0 0 0 0 0 0 0 0 0 0 0 0 0 0 0 0 0
0 0 0 0 0 0 0 0 0 0 0 0 0 0 0 0 0 0 0 0 0 0 0 0 0 0 0 0 0 0 0 0 0 0 0 0 0 0 0 0 0 0 0
0 0 0 0 0 0 0 0 0 0 0 0 0 0 0 0 0 0 0 0 0 0 0 0 0 0 0 0 0 0 0 0 0 0 0 0 0 0 0 0 0 0 0
0 0 0 0 0 0 0 0 0 0 0 0 0 0 0 0 0 0 0 0 0 0 0 0 0 0 0 0 0 0 0 0 0 0 0 0 0 0 0 0 0 0 0
0 0 0 0 0 0 0 0 0 0 0 0 0 0 0 0 0 0 0 0 0 0 0 0 0 0 0 0 0 0 0 0 0 0 0 0 0 0 0 0 0 0 0
0 0 0 0 0 0 0 0 0 0 0 0 0 0 0 0 0 0 0 0 0 0 0 0 0 0 0 0 0 0 0 0 0 0 0 0 0 0 0 0 0 0 0
0 0 0 0 0 0 0 0 0 0 0 0 0 0 0 0 0 0 0 0 0 0 0 0 0 0 0 0 0 0 0 0 0 0 0 0 0 0 0 0 0 0 0
0 0 0 0 0 0 0 0 0 0 0 0 0 0 0 0 0 0 0 0 0 0 0 0 0 0 0 0 0 0 0 0 0 0 0 0 0 0 0 0 0 0 0
0 0 0 0 0 0 0 0 0 0 0 0 0 0 0 0 0 0 0 0 0 0 0 0 0 0 0 0 0 0 0 0 0 0 0 0 0 0 0 0 0 0 0
0 0 0 0 0 0 0 0 0 0 0 0 0 0 0 0 0 0 0 0 0 0 0 0 0 0 0 0 0 0 0 0 0 0 0 0 0 0 0 0 0 0 0
0 0 0 0 0 0 0 0 0 0 0 0 0 0 0 0 0 0 0 0 0 0 0 0 0 0 0 0 0 0 0 0 0 0 0 0 0 0 0 0 0 0 0
0 0 0 0 0 0 0 0 0 0 0 0 0 0 0 0 0 0 0 0 0 0 0 0 0 0 0 0 0 0 0 0 0 0 0 0 0 0 0 0 0 0 0
Wind_Speed
4 2 1 1 3 4 6 8 9 8 8 5 5 4 3 2 2 2 2 2 2 3 3 2 2 2 2 1 1 1 2 2 2 3 4 5 3 3 2 2 2 3 3
5 4 3 2 3 4 6 7 8 9 8 5 4 3 4 3 2 2 3 3 3 3 3 3 2 2 2 2 2 2 1 1 2 1 2 5 6 5 3 3 3 3 3
10 7 5 4 4 4 6 7 7 8 7 7 5 4 4 3 2 2 2 2 3 3 3 3 3 3 2 2 1 1 1 0 1 0 1 1 3 5 4 4 3 3 3
8 7 7 5 5 4 4 6 7 7 7 7 7 6 4 3 3 2 2 2 3 3 3 3 3 3 2 2 1 1 1 1 1 1 1 2 3 3 5 4 3 4 4
8 8 7 6 5 4 5 6 7 6 6 6 7 7 5 4 3 3 3 2 2 3 3 3 3 2 1 1 0 0 1 2 2 2 2 2 2 4 5 7 5 4 4
7 7 6 6 5 4 5 6 7 6 5 6 6 7 8 6 5 4 3 2 1 1 2 3 2 2 1 0 0 1 1 2 2 2 3 3 3 3 4 6 6 7 4
8 8 8 8 7 7 6 6 7 6 6 6 6 6 7 7 6 5 4 3 1 1 0 1 1 0 0 1 1 1 2 2 3 3 3 3 4 4 4 5 6 6 5
8 8 9 8 8 8 7 7 8 7 6 6 6 5 6 4 4 4 4 3 2 2 1 1 1 0 1 1 1 1 2 3 3 5 4 4 5 4 4 4 5 8 5
8 8 8 8 8 8 8 8 8 7 7 7 6 6 5 5 5 4 3 2 2 2 2 1 1 1 1 2 2 2 3 3 4 5 5 4 5 4 5 5 4 5 9
7 7 7 8 7 7 7 7 7 8 7 7 6 5 5 5 5 4 4 3 3 2 2 1 1 2 2 3 3 3 4 4 5 4 5 6 5 5 5 5 5 6 7
8 8 7 7 7 6 7 7 7 7 6 7 6 6 5 4 4 4 4 3 2 2 2 2 2 3 3 3 3 4 5 5 6 6 6 7 7 5 5 5 5 6 6
6 7 7 7 7 8 7 8 7 7 7 7 6 6 5 5 4 4 3 3 3 3 3 3 3 4 4 4 5 6 6 6 7 7 7 8 6 7 6 6 7 7 7
6 6 7 8 9 9 9 8 8 8 7 7 7 6 5 5 5 4 3 3 3 3 3 3 4 5 5 5 6 6 7 7 8 8 8 9 8 9 7 7 7 7 8
5 7 8 8 9 9 9 9 8 8 8 7 7 7 6 6 5 4 3 3 3 3 4 4 5 5 5 6 6 6 7 8 8 8 9 9 9 10 9 8 9 8 9
5 7 8 8 8 8 8 8 8 8 8 8 7 7 5 4 4 3 3 3 3 4 4 4 5 5 5 6 7 7 8 8 9 8 8 9 12 16 13 11 8 8 8
6 6 6 7 9 10 9 9 9 8 8 8 7 6 5 4 4 3 3 3 3 4 4 5 6 6 6 12 17 14 7 7 8 8 8 9 12 16 21 23 22 19 12
5 5 6 7 8 8 9 9 9 8 8 7 6 5 5 4 4 3 3 3 4 4 5 5 6 7 9 16 18 19 11 7 7 8 7 8 9 16 9 16 22 20 24
4 4 4 4 4 5 6 7 7 8 7 6 6 5 5 4 3 3 4 4 3 4 5 6 7 7 10 17 19 20 11 7 8 8 9 10 10 10 13 11 11 12 13
2 2 2 3 5 6 7 8 7 6 6 6 5 5 4 4 3 4 5 4 3 5 5 6 7 8 10 17 19 20 8 7 9 9 9 10 10 18 23 15 12 12 11
2 3 4 5 5 5 7 8 7 6 6 5 5 4 4 4 4 5 4 3 4 5 6 6 7 8 9 16 19 20 7 8 8 8 9 16 17 21 24 14 11 13 12
3 4 5 5 5 6 7 7 6 5 4 4 3 3 3 4 4 4 3 4 4 5 6 8 8 8 11 15 19 20 9 7 9 8 6 7 20 24 25 21 12 15 16
4 5 5 5 4 5 7 6 5 3 3 3 3 2 3 3 3 3 4 4 4 6 7 7 8 7 8 12 15 20 19 18 11 9 7 9 22 24 24 18 17 23 19
4 4 6 6 4 4 5 5 3 3 3 2 2 2 3 3 3 4 5 4 4 5 6 6 8 8 6 8 18 21 22 23 14 9 17 21 25 23 14 16 22 18 7
4 4 6 6 4 3 3 3 3 3 3 2 2 2 3 4 4 3 4 4 5 6 6 7 8 8 7 6 6 8 10 14 13 10 15 21 21 16 16 15 10 6 6
4 4 5 5 4 3 3 3 3 3 2 2 3 3 4 4 5 5 5 6 6 7 8 7 7 9 10 11 19 15 9 8 10 12 8 6 5 5 5 6 6 5 6
4 4 4 4 3 3 2 2 2 2 2 2 3 3 3 4 4 5 6 10 13 17 19 19 17 13 18 24 25 25 24 24 23 15 7 6 6 7 7 7 7 6 7
Wind_Direction
226 195 172 127 123 138 149 156 153 152 148 145 145 140 139 126 105 94 93 95 96 99 105 102 90 88 92 77 57 43 13 351 350 346 326 317 318 321 298 296 312 328 339
200 190 174 150 146 146 148 149 152 154 156 151 140 130 127 121 110 92 75 69 86 95 105 110 104 93 91 68 55 58 42 354 18 35 355 340 337 334 328 334 325 324 334
197 187 177 169 154 155 157 153 152 150 146 136 119 101 90 85 87 82 72 49 75 90 99 107 106 98 99 93 74 94 109 328 335 100 148 344 294 304 310 310 308 309 316
185 180 175 170 169 164 148 139 141 141 142 143 145 144 144 146 154 139 113 72 69 83 94 102 103 101 100 98 87 114 149 160 268 302 240 220 216 266 303 300 291 294 293
183 179 175 168 159 151 142 135 131 133 140 144 145 137 128 129 123 111 104 84 65 74 86 97 99 98 98 105 112 114 175 184 203 221 239 257 249 227 252 286 296 291 257
178 170 159 147 145 142 138 138 135 132 138 138 139 141 141 140 136 133 129 112 85 71 76 93 96 101 107 124 222 218 221 219 222 223 213 213 228 229 231 262 285 291 276
173 169 167 167 163 161 157 152 145 140 142 139 140 145 146 148 151 153 153 150 142 138 111 96 99 102 258 269 255 249 259 240 235 237 232 226 229 228 231 257 277 281 282
182 183 182 176 172 171 167 161 155 149 150 147 144 142 143 143 148 154 155 162 171 183 181 158 166 243 280 284 270 260 259 245 246 250 246 243 245 234 228 237 273 293 284
190 188 184 181 178 177 177 171 162 155 159 154 145 145 147 148 151 152 151 159 175 182 177 177 210 262 272 270 264 256 264 260 253 253 253 249 250 243 240 237 231 257 290
197 194 190 188 185 182 176 169 166 164 161 156 154 152 154 154 152 151 162 173 182 180 181 209 240 263 269 267 261 263 264 263 262 254 255 255 253 251 245 241 239 232 258
203 199 195 188 180 174 172 173 171 161 160 160 154 149 154 154 153 163 177 182 186 193 212 232 249 262 269 268 262 263 267 264 267 265 258 258 256 253 252 245 242 244 244
205 197 188 179 179 182 181 180 176 172 169 161 155 157 157 156 164 178 189 189 202 217 229 241 255 264 267 266 261 267 268 263 265 266 264 264 264 256 253 249 249 250 245
203 192 186 188 190 189 187 185 182 176 165 157 156 158 164 170 182 191 196 202 214 234 246 248 258 266 269 269 265 261 264 261 259 260 260 262 262 264 259 252 254 255 258
208 200 200 199 195 191 188 185 182 172 163 160 162 169 179 183 189 194 202 214 223 240 254 258 261 265 268 269 270 267 264 262 260 257 255 256 254 258 261 261 257 256 258
222 211 208 202 194 190 187 183 177 170 164 163 170 180 179 178 183 197 213 225 236 247 256 267 273 273 272 265 266 261 258 258 261 260 256 255 264 270 274 273 262 253 260
235 221 210 200 197 193 187 180 175 170 163 167 175 171 169 176 191 207 218 236 254 264 266 268 272 277 277 290 296 295 275 263 262 265 263 264 276 282 287 290 291 288 282
237 221 211 206 201 193 182 179 172 159 161 165 166 167 170 182 200 210 224 246 259 263 271 271 271 272 280 294 298 299 295 277 268 267 269 276 275 289 279 284 287 287 285
230 221 208 200 185 166 158 151 148 154 158 159 163 167 173 190 203 217 241 253 254 259 266 270 272 274 281 296 301 302 297 279 270 265 265 269 273 273 280 268 266 262 265
202 195 178 159 145 146 145 139 141 145 150 162 170 176 179 193 211 235 251 255 257 266 266 268 272 274 283 295 300 300 285 275 271 266 264 270 269 279 290 289 280 278 273
115 121 118 116 127 134 135 135 142 148 166 175 177 177 181 197 222 240 254 253 254 265 274 275 270 270 275 289 296 297 283 278 277 270 264 277 284 290 294 290 283 286 285
105 114 115 118 131 135 132 134 143 167 172 157 160 176 194 213 231 244 249 261 269 277 278 279 277 271 275 287 292 295 290 276 279 279 274 268 289 293 295 296 291 289 295
113 119 117 114 118 131 132 136 156 159 141 145 165 197 220 235 241 248 264 266 270 279 282 283 284 273 271 282 288 292 294 295 290 285 279 278 291 295 299 301 297 299 306
132 124 125 119 114 126 133 141 154 142 140 152 198 232 248 251 248 249 264 273 269 270 278 280 285 286 271 272 287 294 296 297 293 283 288 294 299 304 304 299 301 306 306
140 132 130 129 128 127 122 136 144 144 147 188 235 249 259 269 265 254 250 256 262 267 272 277 282 285 282 270 268 270 281 287 290 288 288 294 298 297 296 299 301 292 276
140 139 142 142 144 138 132 137 145 145 169 224 249 259 258 263 270 262 250 256 245 250 267 271 271 284 288 284 292 295 290 286 281 292 286 281 284 283 282 281 279 276 280
139 136 136 138 142 141 140 148 157 163 192 245 259 258 263 266 265 273 281 271 271 280 281 284 285 285 287 295 299 301 301 303 303 304 295 291 288 289 289 288 288 284 281